EW1617 Weather Reports


Display with metric or nautical units.
time (UTC)temp
F
wind
direction
speed
MPH
gust
MPH
rain 1hr
in
rain 24hr
in
rain mn
in
humidity
%
barometer
mb
20240623144202 58 38 1.0 1.0 0.00 0.00 0.01 94 1017.6
20240623143201 58 10 1.0 0.0 0.00 0.00 0.01 94 1017.6
20240623142205 58 24 1.0 2.0 0.00 0.00 0.01 94 1017.3
20240623141206 58 24 1.0 2.0 0.00 0.00 0.01 93 1017.3
20240623140203 58 1 1.0 2.0 0.00 0.00 0.01 94 1017.3
20240623135202 58 38 1.0 6.0 0.00 0.00 0.01 94 1017.3
20240623134206 58 38 1.0 1.0 0.00 0.00 0.01 94 1016.9
20240623133207 58 10 1.0 0.0 0.00 0.00 0.01 95 1016.9
20240623132203 58 10 1.0 0.0 0.00 0.00 0.01 95 1016.9
20240623131204 58 10 1.0 0.0 0.00 0.00 0.01 96 1016.9
20240623130206 58 38 1.0 0.0 0.00 0.00 0.01 96 1016.6
20240623125203 58 10 1.0 0.0 0.00 0.00 0.01 95 1016.6
20240623124206 59 10 1.0 0.0 0.00 0.00 0.01 96 1016.6
20240623123204 59 10 1.0 0.0 0.00 0.00 0.01 96 1016.6
20240623122206 59 10 1.0 0.0 0.00 0.00 0.01 97 1016.6
20240623121204 59 10 1.0 0.0 0.00 0.00 0.01 97 1016.3
20240623120205 59 10 1.0 0.0 0.00 0.00 0.01 97 1016.3
20240623115206 59 10 1.0 0.0 0.00 0.00 0.01 97 1016.3
20240623114206 59 2 1.0 0.0 0.00 0.00 0.01 98 1016.3
20240623113204 59 2 1.0 0.0 0.00 0.00 0.01 98 1016.3
20240623112207 59 2 1.0 0.0 0.00 0.00 0.01 99 1016.3
20240623111206 59 2 1.0 0.0 0.00 0.00 0.01 99 1016.3
20240623110202 59 2 1.0 0.0 0.01 0.00 0.01 99 1015.9
20240623105204 59 10 1.0 0.0 0.01 0.00 0.01 99 1015.9
20240623104202 60 38 1.0 1.0 0.01 0.00 0.01 99 1016.3
20240623103206 60 2 1.0 2.0 0.00 0.00 0.00 99 1015.9
20240623102205 60 6 1.0 3.0 0.00 0.00 0.00 98 1015.9
20240623101206 61 38 1.0 2.0 0.00 0.00 0.00 97 1015.9
20240623100203 62 15 1.0 0.0 0.00 0.00 0.00 96 1015.9
20240623095203 62 43 1.0 0.0 0.00 0.00 0.00 96 1015.6
20240623094206 62 2 1.0 0.0 0.00 0.00 0.00 96 1015.6
20240623093203 63 1 2.0 5.0 0.00 0.00 0.00 93 1015.6
20240623092202 63 2 1.0 6.0 0.00 0.00 0.00 93 1015.6
20240623091207 63 2 1.0 0.0 0.00 0.00 0.00 93 1015.2
20240623090203 63 2 1.0 0.0 0.00 0.00 0.00 92 1015.2
20240623085206 63 1 1.0 1.0 0.00 0.00 0.00 92 1015.2
20240623084206 63 10 1.0 0.0 0.00 0.00 0.00 92 1015.2
20240623083204 63 10 1.0 0.0 0.00 0.00 0.00 91 1015.2
20240623082207 63 10 1.0 3.0 0.00 0.00 0.00 91 1015.2
20240623081206 64 10 1.0 1.0 0.00 0.00 0.00 91 1015.2
20240623080201 64 10 1.0 0.0 0.00 0.00 0.00 91 1015.2
20240623075207 64 10 1.0 1.0 0.00 0.00 0.00 90 1015.2
20240623074202 64 10 1.0 0.0 0.00 0.00 0.00 89 1014.9
20240623073203 64 38 1.0 0.0 0.00 0.00 0.00 89 1014.9
20240623072206 64 38 1.0 1.0 0.00 0.00 0.00 90 1014.9
20240623071205 64 38 1.0 0.0 0.00 0.00 0.00 89 1014.9
20240623070203 64 10 1.0 0.0 0.00 0.00 0.00 89 1014.9
20240623065204 64 10 1.0 3.0 0.00 0.00 0.01 90 1014.9
20240623064204 64 10 1.0 0.0 0.00 0.00 0.01 89 1014.9
20240623063205 65 10 1.0 5.0 0.00 0.00 0.01 88 1014.9
20240623062205 65 10 1.0 3.0 0.00 0.00 0.01 89 1014.9
20240623061205 65 1 1.0 0.0 0.00 0.00 0.01 88 1014.6
20240623060202 65 1 1.0 0.0 0.00 0.00 0.01 87 1014.6
20240623055207 65 1 1.0 2.0 0.00 0.00 0.01 86 1014.6
20240623054205 66 10 1.0 0.0 0.00 0.00 0.01 85 1014.2
20240623053202 66 10 1.0 1.0 0.00 0.00 0.01 85 1014.2
20240623052203 66 10 1.0 0.0 0.00 0.00 0.01 82 1013.9
20240623051205 67 10 1.0 3.0 0.00 0.00 0.01 81 1013.9
20240623050205 67 10 1.0 2.0 0.00 0.00 0.01 79 1013.6
20240623045202 68 10 1.0 2.0 0.00 0.00 0.01 78 1013.6
20240623044207 69 30 1.0 0.0 0.00 0.00 0.01 75 1013.6
20240623043206 69 38 2.0 8.0 0.00 0.00 0.01 74 1013.2
20240623042205 70 10 1.0 2.0 0.00 0.00 0.01 70 1012.9
20240623041205 71 1 1.0 4.0 0.00 0.00 0.01 68 1012.9
20240623040206 71 1 1.0 5.0 0.00 0.00 0.01 65 1012.5
20240623035202 72 2 1.0 6.0 0.00 0.00 0.01 62 1012.5
20240623034205 73 10 1.0 2.0 0.00 0.00 0.01 61 1012.2
20240623033204 73 19 2.0 7.0 0.00 0.00 0.01 59 1012.2
20240623032206 74 1 2.0 6.0 0.00 0.00 0.01 58 1011.9
20240623031203 75 9 2.0 7.0 0.00 0.00 0.01 57 1011.9
20240623030205 76 10 2.0 9.0 0.00 0.00 0.01 54 1011.9
20240623025205 77 5 2.0 8.0 0.00 0.00 0.01 52 1011.9
20240623024202 78 10 1.0 0.0 0.00 0.00 0.01 50 1011.5
20240623023205 80 24 2.0 7.0 0.00 0.00 0.01 48 1011.2
20240623022206 82 6 2.0 9.0 0.00 0.00 0.01 45 1011.2
20240623021204 83 24 1.0 5.0 0.00 0.00 0.01 44 1010.8
20240623020202 83 9 2.0 8.0 0.00 0.00 0.01 45 1010.8
20240623015206 83 24 2.0 8.0 0.00 0.00 0.01 44 1010.8
20240623014203 83 12 2.0 8.0 0.00 0.00 0.01 44 1010.5
20240623013206 84 12 2.0 6.0 0.00 0.00 0.01 41 1010.5
20240623012205 84 26 2.0 7.0 0.00 0.00 0.01 40 1010.5
20240623011205 84 26 2.0 9.0 0.00 0.00 0.01 38 1010.5
20240623010206 85 6 2.0 8.0 0.00 0.00 0.01 37 1010.2
20240623005207 87 12 2.0 8.0 0.00 0.00 0.01 34 1010.2
20240623004207 87 38 1.0 6.0 0.00 0.00 0.01 33 1010.2
20240623003203 88 5 2.0 6.0 0.00 0.00 0.01 31 1010.2
20240623002202 89 5 2.0 7.0 0.00 0.00 0.01 33 1010.2
20240623001203 90 26 2.0 7.0 0.00 0.00 0.01 29 1010.2
20240623000204 90 10 1.0 1.0 0.00 0.00 0.01 29 1010.5
20240622235205 90 30 2.0 8.0 0.01 0.00 0.01 30 1010.5
20240622234203 90 29 2.0 8.0 0.01 0.00 0.01 29 1010.5
20240622233204 90 30 2.0 7.0 0.00 0.00 0.00 28 1010.8
20240622232203 91 15 2.0 6.0 0.00 0.00 0.00 28 1010.8
20240622231203 91 1 2.0 6.0 0.00 0.00 0.00 27 1010.8
20240622230204 91 25 2.0 9.0 0.00 0.00 0.00 29 1010.8
20240622225207 91 38 2.0 6.0 0.00 0.00 0.00 28 1010.8
20240622224204 90 16 2.0 6.0 0.00 0.00 0.00 29 1011.2
20240622223206 90 11 2.0 9.0 0.00 0.00 0.00 28 1011.2
20240622222204 90 43 2.0 7.0 0.00 0.00 0.00 27 1011.2
20240622221205 90 16 2.0 6.0 0.00 0.00 0.00 27 1011.2
20240622220203 89 16 1.0 4.0 0.00 0.00 0.00 26 1011.2
20240622215207 89 30 1.0 2.0 0.00 0.00 0.00 27 1011.2
20240622214202 89 1 2.0 7.0 0.00 0.00 0.00 28 1011.5
20240622213202 88 5 1.0 5.0 0.00 0.00 0.00 28 1011.5
20240622212205 88 2 1.0 1.0 0.00 0.00 0.00 30 1011.5
20240622211204 87 38 1.0 0.0 0.00 0.00 0.00 29 1011.5
20240622210203 86 6 2.0 7.0 0.00 0.00 0.00 29 1011.9
20240622205207 86 23 2.0 9.0 0.00 0.00 0.00 27 1011.9
20240622204205 86 23 1.0 2.0 0.00 0.00 0.00 27 1011.9
20240622203202 85 24 1.0 4.0 0.00 0.00 0.00 27 1011.9
20240622202203 84 43 1.0 2.0 0.00 0.00 0.00 28 1011.9
20240622201205 84 19 2.0 6.0 0.00 0.00 0.00 27 1011.9
20240622200207 83 1 1.0 7.0 0.00 0.00 0.00 29 1012.2
20240622195205 83 30 1.0 1.0 0.00 0.00 0.00 29 1012.2
20240622194203 82 1 2.0 6.0 0.00 0.00 0.00 28 1012.2
20240622193206 82 15 1.0 3.0 0.00 0.00 0.00 32 1012.5
20240622192202 80 16 2.0 7.0 0.00 0.00 0.00 33 1012.5
20240622191202 80 30 2.0 7.0 0.00 0.00 0.00 33 1012.5
20240622190204 79 15 1.0 3.0 0.00 0.00 0.00 33 1012.5
20240622185206 78 2 1.0 1.0 0.00 0.00 0.00 34 1012.5
20240622184203 77 1 1.0 7.0 0.00 0.00 0.00 35 1012.5
20240622183207 75 10 1.0 0.0 0.00 0.00 0.00 36 1012.9
20240622182205 75 8 1.0 4.0 0.00 0.00 0.00 37 1012.9
20240622181205 74 23 1.0 5.0 0.00 0.00 0.00 37 1012.9
20240622180203 73 26 2.0 7.0 0.00 0.00 0.00 36 1012.9
20240622175202 73 43 1.0 2.0 0.00 0.00 0.00 37 1013.2
20240622174204 72 2 1.0 0.0 0.00 0.00 0.00 38 1013.2
20240622173206 71 1 1.0 3.0 0.00 0.00 0.00 39 1013.2
20240622172206 71 43 1.0 2.0 0.00 0.00 0.00 41 1013.6
20240622171204 70 1 2.0 7.0 0.00 0.00 0.00 40 1013.6
20240622170204 69 1 1.0 3.0 0.00 0.00 0.00 45 1013.6
20240622165203 69 1 1.0 2.0 0.00 0.00 0.00 45 1013.9
20240622164205 68 22 1.0 3.0 0.00 0.00 0.00 48 1013.9
20240622163205 67 5 2.0 8.0 0.00 0.00 0.00 47 1013.9
20240622162205 66 10 1.0 0.0 0.00 0.00 0.00 52 1013.9
20240622161205 65 2 1.0 5.0 0.00 0.00 0.00 54 1013.9
20240622160206 65 2 1.0 3.0 0.00 0.00 0.00 57 1013.9
20240622155204 64 1 2.0 7.0 0.00 0.00 0.00 60 1013.9
20240622154203 64 20 2.0 8.0 0.00 0.00 0.00 62 1013.9
20240622153203 63 6 1.0 2.0 0.00 0.00 0.00 63 1013.9
20240622152203 62 6 2.0 6.0 0.00 0.00 0.00 63 1014.2
20240622151202 61 43 1.0 0.0 0.00 0.00 0.00 68 1014.2
20240622150204 60 2 1.0 4.0 0.00 0.00 0.00 70 1013.9
20240622145203 60 2 1.0 5.0 0.00 0.00 0.00 73 1013.9